Weather in Kharbalakh

Russia / Sakha (Yakutia) Republic     62°11′46″N   134°15′05″E
temp.,
°C
wind,
m/s
gust,
m/s
humid.,
%
clouds,
%
prec.,
mm/h
press.,
hPa
HPBL,
m
13 may, thu
thu1300:00+6nnw2494100 0.0 1007186
03:00+5nnw2594100 0.0 1008189
06:00+6nne2378100 0.0 1008400
09:00+8n2266100 0.0 1008961
12:00+11n2345100 0.0 10081640
15:00+12n3336100 0.0 10082032
18:00+11n223832 0.0 10091885
21:00+5ne386343 0.0 1011200
14 may, fri
fri1400:00+2ne226986 0.0 101242
03:000ne227390 0.0 101327
06:00+4ne245453 0.0 1013237
09:00+9ne233540 0.0 1013844
12:00+12nne222717 0.0 10111548
15:00+13ne22245 0.0 10101817
18:00+12ne22275 0.0 10101780
21:00+6ne22474 0.0 101122
15 may, sat
sat1500:00+3ne225758 0.0 101120
03:00+2ne226260 0.0 101034
06:00+5ne25525 0.0 1010207
09:00+11ene2336100 0.0 1009786
12:00+14sse3341100 0.0 10071761
15:00+12ne115995 0.2 1007456
18:00+14ne2348100 0.0 1006453
21:00+9s2257100 0.0 100833
16 may, sun
sun1600:00+6s2268100 0.0 100828
03:00+5ne1174100 0.0 100810
06:00+7e1365100 0.0 1008169
09:00+11se2448100 0.0 10071435
12:00+11sse2553100 0.0 10071487
15:00+12sse3546100 0.1 10061764
18:00+11s3548100 0.0 10061526
21:00+7ssw3762100 0.0 1007299
17 may, mon
mon1700:00+5se1166100 0.0 100610
03:00+4e1169100 0.0 100511
06:00+7e1260100 0.0 1005168
09:00+10se245097 0.0 10031282
12:00+12s3545100 0.1 10021792
15:00+12s354099 0.1 10011877
18:00+12sse234396 0.0 10001711
21:00+8s3868100 0.1 1002315